Find Starlink 35847

NORAD ID: 66621 Int'l Des: 2025-271 Owner: SPXS Country: US Constellation: starlink operational
LEOCIRCULAR

当前视图

正在加载3D地球...

About Starlink 35847

Starlink 35847 (NORAD 66621) is a starlink constellation satellite (v2 mini) launched Nov 23, 2025 by SPXS of US. It operates in LEO, CIRCULAR orbit with a mass of 575.00 kg.

关于 Starlink 35847

正在加载描述...

即将过境

Passes for default location (London). Set your location on the main map for personalized predictions.

高度历史

Loading altitude history...

两行轨道根数

1 66621U 25271E 26195.46427948 -.00001414 00000-0 -35637-4 0 9995
2 66621 53.1606 271.2723 0001750 34.7026 325.4089 15.30180543 36979
Epoch: Jul 14, 2026 • Age: 4 hours

当前状态

高度 479.9 km
远地点 / 近地点 N/A
速度 7.63 km/s
星下点 -12.92°S, 59.12°W
发射日期 Nov 23, 2025
运行时间 0.6 years
类型 internet

技术详情

分类 Payload
质量 575.00 kg
干质量 530.00 kg
总质量 575.00 kg
长度 0.30 m
直径 4.10 m
跨度 29.00 m
形状 Box + pan
制造商 SPXS
平台类型 Starlink V2MO
阶段状态 In Orbit
所有者/国家 SPXS/US

Most Searched